RH
69 81 88 87 72 61 38 25 17 11 8 8 13 19 28 30 16 16 20 19 27 23 23 33 30 19 59 32 95 94 57 41 37 31 28 21 18 19 24 21 16 11 11 14 16 18 15
77 76 78 78 60 45 30 20 12 8 8 17 26 55 56 14 18 37 18 31 17 27 28 37 37 28 40 21 74 100 97 38 43 36 31 27 21 17 18 25 20 13 14 17 18 17 16
75 74 76 68 58 37 28 15 9 9 18 29 48 78 34 23 22 59 61 46 41 22 32 36 44 32 66 24 42 99 99 89 40 48 35 32 30 21 15 18 22 16 16 17 16 18 16
71 66 72 71 47 37 22 10 9 12 31 49 84 84 17 51 77 94 68 44 60 15 35 39 47 36 28 100 29 88 100 93 90 64 49 35 32 27 20 15 18 20 16 17 18 19 17
68 71 77 59 44 32 16 9 8 17 44 78 100 70 43 67 83 100 90 55 48 15 30 41 46 33 25 100 72 87 99 84 98 82 77 46 35 31 27 18 14 16 17 16 18 18 16
75 72 72 55 43 26 13 9 8 22 56 99 100 89 64 93 86 89 71 81 38 23 22 40 43 27 73 61 40 86 99 76 99 99 91 82 45 35 28 21 16 14 14 14 15 16 14
79 78 72 50 40 23 12 9 8 27 85 100 100 100 92 76 93 100 100 67 36 26 23 38 37 29 42 68 33 84 100 65 97 93 93 90 54 32 30 27 26 19 14 12 12 12 11
86 81 65 52 45 21 12 8 6 14 90 100 100 98 100 92 86 92 78 39 34 16 27 35 33 26 42 100 58 75 98 91 71 95 75 80 70 46 36 33 28 22 18 16 16 13 10
89 79 62 56 44 20 12 7 5 8 16 99 100 94 96 78 87 91 81 20 33 13 29 32 37 100 100 73 45 60 98 98 95 98 94 98 98 97 82 48 30 26 23 21 18 15 12
91 82 70 60 45 19 11 5 4 6 14 85 90 98 99 100 98 87 25 16 24 20 31 29 68 100 89 42 38 81 99 99 98 90 97 73 100 91 97 100 75 31 31 29 25 21 17
96 90 76 61 41 18 9 5 4 4 17 67 90 94 99 96 95 60 9 18 17 33 43 28 88 94 99 56 41 52 76 100 94 97 69 77 86 93 92 100 97 93 86 80 58 37 23
100 94 82 56 35 15 7 6 12 27 32 31 62 87 74 38 24 7 12 16 31 100 64 98 100 98 71 38 40 51 48 94 100 57 42 51 63 89 98 97 78 46 70 51 25 20 20
98 94 83 46 31 12 7 10 37 62 60 23 8 7 7 7 9 11 15 23 100 75 92 100 94 68 97 53 29 43 50 72 94 62 41 34 33 32 34 30 23 23 22 19 18 17 16
69 97 83 39 26 10 8 29 35 66 63 65 86 84 24 10 13 45 100 100 86 56 51 59 47 43 92 45 34 43 49 60 86 74 77 74 55 34 26 24 23 21 20 20 18 18 18
96 97 84 38 24 10 12 21 32 47 71 86 60 93 85 76 67 93 96 97 99 49 96 98 88 99 65 27 24 44 46 39 54 63 40 32 34 38 33 27 27 32 30 31 23 17 14
80 98 85 42 23 10 12 22 23 29 39 55 94 40 32 52 52 59 47 91 98 99 83 75 80 55 28 21 39 47 41 35 35 80 45 30 28 31 34 34 38 38 32 25 19 15 14
65 100 87 51 25 11 12 20 23 24 24 24 41 67 73 25 45 68 28 56 83 98 48 36 33 23 16 25 46 46 36 32 28 30 27 37 37 46 42 35 30 27 24 21 20 18 17
90 99 94 70 31 13 13 20 24 25 23 31 18 38 95 72 58 56 40 36 38 27 31 51 44 50 44 49 76 72 32 28 26 29 37 38 41 36 31 27 25 23 22 25 27 25 20
88 100 100 90 36 22 13 17 21 33 30 30 27 18 60 84 82 51 42 53 54 54 72 74 61 62 49 56 74 68 28 27 25 26 29 30 29 28 25 24 24 31 34 32 26 22 30
68 82 100 90 44 30 13 15 24 26 39 44 31 19 22 49 57 66 66 57 44 42 27 41 46 43 44 75 67 30 26 28 27 27 28 27 26 24 25 32 37 36 31 27 28 39 57
65 45 100 99 62 35 18 14 16 28 30 32 49 41 35 48 51 46 53 52 56 57 65 65 71 65 71 68 36 24 24 26 29 28 26 24 26 38 42 38 30 26 27 34 68 72 85
52 50 97 99 91 42 28 16 14 15 24 27 28 42 46 49 42 48 48 44 43 48 60 68 77 88 84 59 39 26 24 25 26 28 28 37 44 44 38 28 28 41 54 83 87 82 80
11 17 73 100 96 50 35 27 18 14 14 23 24 25 32 36 42 44 46 41 43 40 45 54 76 80 73 58 47 40 33 31 32 36 44 47 45 37 28 31 49 72 94 87 82 79 78
4 7 31 100 99 66 41 36 32 24 15 14 17 22 21 19 22 31 30 30 36 33 33 36 34 47 65 85 77 61 53 50 49 48 47 43 36 26 31 54 67 88 97 94 87 70 49
4 5 51 98 100 86 50 40 43 43 32 19 14 18 25 25 26 31 31 30 30 29 28 30 30 34 31 48 74 64 58 55 48 45 42 33 29 38 59 82 85 96 100 99 89 61 41
6 9 40 98 100 94 62 48 50 56 52 42 27 15 15 24 31 32 29 31 28 28 31 33 32 32 34 33 58 60 41 42 40 38 38 32 29 56 81 91 92 96 100 94 72 50 51
24 36 54 99 100 96 76 58 57 60 62 60 51 36 21 14 18 24 28 27 26 25 25 29 31 33 35 35 34 49 64 50 41 44 58 42 26 61 87 94 95 99 100 96 78 63 49
75 100 81 99 100 98 88 71 69 67 64 68 62 58 47 31 22 16 16 21 24 25 24 24 27 34 32 30 32 34 44 71 65 56 57 57 28 71 92 95 98 100 97 76 63 56 48
82 100 82 98 100 99 99 86 79 79 74 82 82 67 61 59 53 46 33 16 14 17 23 22 30 32 29 32 31 31 34 38 62 57 53 41 34 78 94 100 94 95 80 61 59 56 49
Wind_Speed
54 51 48 51 55 59 63 66 69 74 79 83 74 69 62 62 57 53 51 58 62 58 57 53 49 45 39 40 36 43 44 56 59 58 53 50 47 47 47 45 42 43 42 40 39 40 41
54 50 48 53 57 61 66 70 75 80 84 78 70 64 64 53 36 33 38 44 57 60 58 54 51 46 37 38 42 45 44 46 57 55 55 52 48 46 48 47 45 45 44 42 42 42 43
52 48 50 54 59 63 69 73 79 85 81 72 62 57 54 37 28 23 29 35 42 62 59 54 50 48 47 35 41 39 39 45 53 52 52 52 49 48 48 48 49 48 46 46 45 43 43
49 49 52 56 60 67 72 77 84 86 77 65 59 56 36 24 18 15 20 29 35 57 59 53 51 47 42 36 41 35 36 43 44 49 52 53 52 50 47 48 49 50 49 48 44 44 45
51 50 53 55 61 69 73 80 88 87 71 58 51 48 30 20 16 12 11 17 34 46 58 53 51 47 43 35 39 33 40 36 39 44 46 51 49 48 47 48 48 51 51 49 47 48 48
51 51 54 57 63 70 76 84 91 84 62 53 43 35 24 20 13 17 17 8 27 42 56 52 52 51 46 26 36 30 39 35 36 36 44 46 50 49 49 50 49 49 47 47 47 48 48
50 53 55 59 66 72 78 86 93 74 56 48 36 30 20 19 15 21 18 15 24 41 54 51 50 46 42 30 35 31 31 38 32 35 36 38 47 51 49 46 46 49 50 47 45 45 46
49 53 54 60 68 73 80 89 90 71 49 41 32 30 27 18 14 17 19 10 29 49 52 50 47 43 40 38 37 33 32 41 35 32 33 32 30 39 45 47 48 48 48 46 44 45 47
49 53 54 61 68 74 81 90 85 67 47 34 32 25 24 14 15 19 18 5 33 56 53 48 47 32 31 32 32 32 27 34 35 32 30 29 32 24 27 37 43 44 42 43 43 44 45
48 51 53 60 68 73 81 88 77 61 41 29 29 27 19 13 17 15 5 22 44 59 53 48 41 35 33 33 32 33 28 33 31 32 30 28 26 26 24 24 30 37 39 38 37 40 41
48 49 53 59 67 72 80 85 69 49 40 34 30 25 14 3 10 4 16 34 60 58 48 43 40 32 32 34 31 36 29 29 32 31 29 30 27 26 25 31 29 27 28 27 29 33 38
48 48 52 57 64 71 77 79 56 58 43 37 28 20 13 7 9 20 36 54 60 49 45 43 34 40 35 32 31 33 29 25 32 29 30 31 31 31 29 29 27 26 27 29 29 28 34
54 50 50 54 62 69 75 63 54 61 63 51 39 33 26 27 30 44 53 55 29 52 45 31 33 33 27 26 30 30 26 24 27 31 26 26 29 30 32 29 27 25 26 28 28 27 27
52 49 47 50 59 64 68 46 45 54 56 57 55 53 45 35 48 59 39 23 38 39 38 33 31 32 28 29 27 27 28 27 21 22 21 21 21 22 23 26 26 26 27 25 22 21 20
47 43 43 45 52 56 55 45 45 45 47 48 45 44 43 38 54 32 18 33 48 40 34 34 34 30 27 25 24 26 25 26 24 20 20 21 23 25 26 24 23 23 22 20 18 18 19
47 43 39 40 45 49 49 38 37 35 42 43 51 41 38 38 22 16 16 28 40 32 35 30 28 24 22 21 22 20 21 22 24 21 20 21 22 20 22 21 20 20 19 18 17 19 18
44 39 36 34 38 41 41 31 34 35 34 36 41 39 21 17 24 21 20 20 33 30 24 27 24 17 18 18 18 18 18 18 18 20 17 17 18 16 18 18 20 19 17 16 15 17 19
38 35 34 30 31 34 35 29 25 28 31 34 27 33 34 29 23 29 27 30 18 17 15 17 18 16 17 17 16 17 16 18 17 17 15 15 15 16 17 15 13 13 13 13 15 17 19
32 30 32 26 26 28 27 24 21 23 28 31 24 19 25 36 29 27 24 21 15 17 15 14 12 12 14 17 17 17 15 15 15 14 14 15 15 15 13 12 13 13 14 15 17 18 17
33 35 29 21 19 22 21 21 17 15 24 28 23 19 15 21 25 28 21 17 13 11 10 9 8 10 13 14 15 14 16 15 14 14 16 15 14 13 11 12 13 15 15 17 15 17 15
43 36 28 20 14 16 16 17 16 11 13 16 18 12 12 13 17 21 23 21 17 9 8 8 6 11 11 14 11 11 13 13 13 13 12 12 12 11 11 12 14 15 16 13 12 10 6
43 28 25 27 10 13 12 12 15 13 11 10 6 7 8 9 9 12 15 16 18 18 15 7 5 9 13 12 13 13 13 14 13 12 13 12 11 11 12 14 15 15 12 10 8 8 9
39 31 27 27 15 12 9 8 8 9 8 7 5 5 4 4 3 4 5 8 12 13 16 16 10 5 12 10 11 11 12 13 13 14 13 12 12 13 14 15 14 12 11 11 11 7 5
38 33 30 24 22 13 11 5 6 6 6 7 3 3 7 9 10 9 6 5 4 4 6 6 9 10 4 13 15 13 13 14 14 15 15 14 13 15 17 15 12 12 12 8 8 3 5
36 33 27 22 24 16 14 10 7 6 7 6 7 7 6 7 10 10 10 8 6 6 8 7 8 7 5 4 11 14 16 17 17 17 17 14 15 18 15 13 12 13 10 7 5 5 6
34 31 25 24 25 19 18 15 10 9 9 8 10 10 12 12 13 13 14 12 11 12 12 13 12 12 12 13 18 20 18 18 19 18 16 16 16 16 14 11 12 14 12 8 7 8 7
30 27 25 24 28 22 20 20 15 13 12 13 13 14 14 16 18 20 22 20 19 17 15 14 15 16 15 14 17 21 26 23 21 20 19 18 17 15 14 14 13 13 13 10 11 10 7
29 28 27 25 28 26 22 22 20 17 16 15 16 17 18 18 21 20 24 26 28 28 27 24 20 16 18 18 19 20 24 29 27 23 21 21 19 17 15 15 17 15 14 13 12 11 9
30 26 29 26 29 29 25 24 23 21 19 20 20 21 21 22 25 24 22 26 30 32 31 27 24 21 18 20 19 23 22 25 29 26 25 23 21 19 18 19 17 16 14 13 14 13 12
Wind_Direction
330 330 327 324 326 328 329 329 327 323 322 323 320 313 306 302 288 275 259 246 236 230 228 224 220 219 231 225 230 227 224 220 220 220 221 222 222 224 226 227 232 231 228 223 215 217 222
331 330 332 331 330 332 332 330 327 325 327 326 323 319 314 309 294 274 256 245 230 224 225 220 216 215 224 218 222 222 219 219 220 219 221 222 221 222 224 225 227 229 225 220 218 221 226
330 333 334 332 334 335 334 331 328 328 330 329 325 321 320 315 294 274 259 237 227 218 219 216 210 208 208 212 218 220 217 216 217 217 219 221 222 222 223 224 225 228 227 226 223 225 230
330 336 335 334 336 338 334 331 331 331 333 330 327 326 333 322 316 297 267 244 222 211 213 209 205 203 204 209 216 225 206 215 213 215 217 218 221 221 222 224 226 229 230 231 231 233 234
332 337 336 336 339 339 335 334 334 334 334 332 329 335 350 349 355 353 325 250 215 203 205 201 197 197 195 200 201 220 201 208 210 209 216 218 222 223 222 224 226 228 231 233 235 237 238
334 336 338 338 342 340 337 338 336 335 333 335 330 341 353 344 356 350 324 268 208 195 196 193 191 192 191 189 198 215 197 199 207 205 213 216 219 221 223 224 227 230 235 236 238 240 242
338 338 340 341 343 342 339 340 338 337 336 334 330 333 326 330 328 327 306 291 195 186 186 186 187 189 191 196 202 213 207 188 201 203 207 213 219 220 224 227 230 231 233 236 239 243 244
340 341 342 343 346 342 342 341 339 338 335 330 328 334 322 318 319 311 310 294 183 174 175 179 180 181 187 190 195 204 210 188 194 198 200 206 215 221 225 228 231 233 236 239 242 243 245
340 342 343 345 347 343 344 343 343 339 336 331 333 337 340 321 307 315 320 187 170 162 169 172 171 176 178 178 189 201 211 189 189 196 195 199 201 214 213 226 231 235 238 241 243 244 246
340 342 344 347 348 345 347 348 348 347 349 346 339 336 328 337 326 310 291 154 158 154 160 165 169 179 178 180 185 185 207 184 191 187 192 198 197 204 198 206 225 227 233 238 245 247 248
340 343 346 349 349 347 350 357 354 358 3 352 347 354 351 320 286 317 135 147 150 149 151 165 176 166 181 180 179 185 198 200 189 186 194 194 199 196 217 213 223 225 230 237 242 246 248
339 342 349 351 349 351 354 9 19 30 20 13 6 10 17 32 88 118 132 141 142 145 150 159 166 177 170 170 177 189 190 185 184 184 195 200 205 202 205 213 224 232 236 242 245 247 249
341 342 351 353 351 355 0 23 38 32 34 39 48 55 63 86 105 119 125 133 133 152 154 148 161 160 167 176 179 181 193 186 187 185 192 198 202 208 217 226 230 230 234 241 244 245 251
342 338 352 355 355 360 7 32 35 37 42 47 63 62 66 86 112 121 107 96 139 156 155 160 174 171 173 175 175 176 182 192 189 191 198 205 210 212 212 217 220 219 225 232 240 241 243
341 344 352 357 359 4 12 22 42 45 49 52 68 63 75 89 124 108 92 132 130 147 163 160 164 171 170 174 181 177 182 183 188 197 202 200 205 211 215 216 215 215 218 223 227 226 229
341 340 348 357 1 7 12 25 44 46 35 32 50 62 86 106 98 59 111 148 141 130 157 168 173 170 177 177 171 177 178 183 187 194 196 202 205 211 211 213 211 207 205 214 224 232 240
338 337 342 357 3 9 11 25 44 44 39 27 34 42 62 76 69 85 140 146 137 137 138 161 163 167 172 167 168 168 181 180 188 193 201 193 195 196 195 197 195 198 205 220 237 250 260
344 336 339 353 2 9 13 17 39 35 33 31 33 36 58 71 75 70 117 156 151 160 150 146 152 154 161 168 173 177 182 186 187 187 187 184 180 187 190 194 202 210 221 233 247 259 267
328 330 330 345 353 7 13 13 7 26 29 35 47 35 51 65 75 74 85 107 103 134 132 139 153 162 166 170 178 183 182 184 184 178 177 184 188 195 191 199 208 221 234 246 253 262 270
313 323 316 326 339 357 7 16 355 20 33 38 57 65 40 40 58 68 76 93 102 106 137 151 164 175 184 184 178 184 183 186 180 178 183 190 196 200 200 213 224 239 245 253 263 261 267
320 310 307 306 330 344 356 13 18 339 349 35 48 71 68 50 57 55 56 60 67 82 106 152 169 181 192 178 177 185 191 190 186 189 195 200 198 205 216 233 240 245 255 261 254 248 230
315 303 307 298 306 316 342 359 16 17 317 360 30 47 40 40 47 53 53 47 43 58 60 83 128 174 179 190 189 195 196 198 198 194 200 204 213 227 240 237 243 252 253 249 230 218 196
306 298 290 296 283 284 317 342 350 1 358 329 333 321 307 328 356 31 44 50 55 55 63 65 60 180 192 192 199 202 205 202 202 205 211 221 232 243 245 245 248 237 222 208 200 212 266
301 295 282 283 272 259 281 302 318 337 335 339 332 305 303 286 274 282 298 317 323 346 348 20 57 59 59 230 226 225 223 221 218 224 229 235 239 237 244 247 249 220 211 201 186 231 299
294 291 278 270 260 243 254 266 284 314 315 304 299 288 274 263 272 269 264 270 272 285 294 293 286 275 266 237 231 226 229 229 228 228 231 229 232 242 243 245 235 214 203 196 212 259 275
291 286 270 260 253 236 245 245 256 281 292 291 285 278 276 265 257 265 263 264 265 264 265 261 257 258 252 237 228 226 230 231 229 224 218 225 237 240 244 235 217 210 206 205 233 263 294
283 277 264 258 250 235 240 249 248 263 272 275 275 275 272 272 270 260 256 259 257 263 270 276 271 268 258 247 244 233 227 229 227 224 226 233 236 234 237 224 223 216 214 218 241 260 272
274 277 257 264 246 235 238 248 254 263 276 279 268 270 268 266 267 266 266 262 263 261 261 266 266 265 263 264 254 246 231 227 229 231 232 233 238 231 232 224 223 215 212 226 242 244 257
276 281 257 262 242 235 239 246 256 263 273 284 281 272 268 264 266 266 263 263 261 257 257 258 254 256 260 254 258 254 247 231 229 230 231 233 230 226 227 222 217 215 224 234 242 246 256